Home   Weather   Basse-Terre   Past weeks

Flag for Guadeloupe Past Weather in Basse-Terre, Guadeloupe — Yesterday and Last 2 Weeks

Now
75 °F

Passing clouds.


Feels Like: 74 °F
Forecast: N/A
Wind: 7 mph from Northeast

Location: Le Raizet - Guadeloupe

Current Time: Dec 4, 2016 at 6:30:28 pm

Latest Report: Dec 4, 2016 at 6:00 pm


Visibility: N/A

Pressure: 29.92 "Hg

Humidity: 94%

Dew Point: 73 °F

Location of Basse-TerreLocation

Past Weather in Basse-Terre — Graph

°F

Basse-Terre Temperature Yesterday

Maximum temperature yesterday: 86 °F (at 10:30 am)
Minimum temperature yesterday: 72 °F (at 6:30 am)
Average temperature yesterday: 80 °F

High & Low Weather Summary for the Past Weeks

 TemperatureHumidityPressure
High88 °F (Nov 25, 2:00 pm)100% (Nov 19, 10:00 pm)30.01 "Hg (Nov 19, 10:00 pm)
Low70 °F (Nov 27, 3:00 am)55% (Nov 26, 2:00 pm)29.71 "Hg (Nov 28, 3:30 pm)
Average78 °F83%29.88 "Hg
* Reported Nov 19 5:00 pm — Dec 4 5:30 pm, Basse-Terre, Weather by CustomWeather, © 2016

Note: Actual official high and low records may vary slightly from our data, if they occured in-between our weather recording intervals... More about our weather records

Advertising

Basse-Terre Weather History for the Previous 24 Hours

Scroll right to see more
 ConditionsComfort  
Time TempWeatherWind HumidityBarometerVisibility
5:30 pm
Sun, Dec 4
77 °FPartly sunny.1 mph89%29.92 "HgN/A
5:00 pm75 °FOvercast.2 mph94%29.92 "HgN/A
4:30 pm75 °FLight rain. Mostly cloudy.9 mph94%29.92 "HgN/A
4:00 pm77 °FLight rain. Overcast.13 mph89%29.92 "HgN/A
3:30 pm81 °FOvercast.8 mph74%29.92 "HgN/A
3:00 pm82 °FMore clouds than sun.13 mph70%29.92 "HgN/A
2:30 pm84 °FBroken clouds.10 mph58%29.92 "HgN/A
2:00 pm84 °FPassing clouds.9 mph66%29.92 "HgN/A
1:30 pm84 °FBroken clouds.12 mph66%29.92 "HgN/A
1:00 pm84 °FPartly sunny.10 mph66%29.92 "HgN/A
12:30 pm82 °FPartly sunny.8 mph70%29.95 "HgN/A
12:00 pm81 °FPartly sunny.9 mph79%29.95 "HgN/A
11:30 am82 °FPartly sunny.8 mph66%29.98 "HgN/A
11:00 am82 °FOvercast.6 mph70%29.98 "HgN/A
10:30 am82 °FPartly sunny.6 mph66%29.98 "HgN/A
10:00 am82 °FBroken clouds.7 mph70%30.01 "HgN/A
9:30 am82 °FPartly sunny.7 mph66%30.01 "HgN/A
9:00 am84 °FPassing clouds.7 mph66%30.01 "HgN/A
8:30 am82 °FPassing clouds.3 mph70%29.98 "HgN/A
8:00 am77 °FSunny.No wind89%29.98 "Hg10 mi
7:30 am73 °FSunny.No wind100%29.95 "Hg10 mi
7:00 am72 °FSunny.No wind100%29.95 "Hg10 mi
6:30 am72 °FPassing clouds.2 mph100%29.92 "HgN/A
6:00 am72 °FClear.2 mph100%29.92 "Hg10 mi
5:30 am72 °FPassing clouds.1 mph100%29.92 "HgN/A
5:00 am72 °FPassing clouds.1 mph100%29.89 "HgN/A
4:30 am72 °FPassing clouds.1 mph100%29.89 "HgN/A
4:00 am72 °FClear.1 mph100%29.89 "Hg10 mi
3:30 am72 °FPassing clouds.3 mph100%29.89 "HgN/A
3:00 am73 °FPassing clouds.2 mph94%29.89 "HgN/A
2:30 am75 °FPartly cloudy.2 mph89%29.92 "HgN/A
2:00 am75 °FPassing clouds.2 mph89%29.92 "HgN/A
1:30 am75 °FClear.2 mph89%29.92 "Hg10 mi
1:00 am75 °FMild.1 mph89%29.95 "HgN/A
12:30 am75 °FMild.1 mph89%29.95 "HgN/A
12:00 am75 °FMostly cloudy.5 mph89%29.95 "HgN/A
11:30 pm
Sat, Dec 3
75 °FPassing clouds.6 mph89%29.95 "HgN/A
11:00 pm77 °FPassing clouds.1 mph83%29.98 "HgN/A
10:30 pm77 °FMostly cloudy.5 mph83%29.98 "HgN/A
10:00 pm77 °FOvercast.7 mph83%29.98 "HgN/A
9:30 pm77 °FOvercast.5 mph83%29.98 "HgN/A
9:00 pm77 °FPartly cloudy.7 mph83%29.98 "HgN/A
8:30 pm77 °FWarm.8 mph83%29.95 "HgN/A
8:00 pm77 °FPassing clouds.5 mph83%29.95 "HgN/A
7:00 pm77 °FPassing clouds.6 mph83%29.95 "HgN/A
6:30 pm79 °FClear.5 mph74%29.92 "Hg10 mi
6:00 pm81 °FClear.5 mph70%29.92 "Hg10 mi
Weather by CustomWeather, © 2016

See weather overviewHow to use our weather pages